Meteo Giornale » Osservazioni meteo Stati Uniti (USA) » Park Rapids
ore: 15:53 - Osservazioni Meteo Park Rapids
Lat. 46° 54' N Lon. 95° 4' W Alt. 439 metri s.l.m.
27 °C
Sereno
Temp. 24 Ore
19 °C
27 °C
Ovest/Sud-Ovest
16.7 Km/h
Dew point 13 °C
Umidità 42 %
Visibilità 10 Km
Il sole sorge alle ore 06:38
Il sole tramonta alle ore 20:02
| Data e Ora | Cielo e Fenomeni | T °C | DP °C | Um. % | Pres. hPa | Vis. km | Vento km/h | |
|---|---|---|---|---|---|---|---|---|
| Oggi h: 15:53 | Sereno | 27 | 13 | 42 | 1011 | 10 | O/SO 16.7 | |
| Oggi h: 14:53 | Sereno | 27 | 12 | 39 | 1012 | 10 | O/SO 13 | |
| Oggi h: 13:53 | Sereno | 27 | 12 | 39 | 1011 | 10 | O/NO 16.7 | |
| Oggi h: 12:53 | Sereno | 26 | 13 | 44 | 1011 | 10 | NO 18.5 | |
| Oggi h: 11:53 | Sereno | 24 | 15 | 57 | 1012 | 10 | O/SO 16.7 | |
| Oggi h: 10:53 | Sereno | 22 | 16 | 68 | 1011 | 10 | O/NO 13 | |
| Oggi h: 09:53 | Sereno | 20 | 16 | 77 | 1011 | 10 | O/NO 13 | |
| Oggi h: 09:02 | Nuvoloso | 20 | 17 | 82 | 1011 | 10 | NO 13 | |
| Oggi h: 08:53 | Molto Nuvoloso | 19 | 17 | 88 | 1011 | 10 | O/NO 16.7 | |
| Oggi h: 07:53 | Coperto | 19 | 17 | 88 | 1010 | 10 | O/NO 16.7 | |
| Oggi h: 07:05 | Molto Nuvoloso | 19 | 18 | 93 | 1009 | 10 | O/NO 20.3 | |
| Oggi h: 06:53 | Coperto | 19 | 18 | 93 | 1008 | 13 | O 24 | |
| Oggi h: 06:49 | Foschia | 19 | 19 | 100 | 1008 | 3 | O/NO 29.6 | |
| Oggi h: 06:19 | Nebbia | 19 | 19 | 100 | 1008 | 2 | N 0 | |
| Oggi h: 06:07 | Foschia | 20 | 19 | 93 | 1008 | 5 | N 5.5 | |
| Oggi h: 05:53 | Foschia | 20 | 19 | 93 | 1007 | 10 | N 5.5 | |
| Oggi h: 05:02 | Coperto | 20 | 19 | 93 | 1007 | 14 | N 0 | |
| Oggi h: 04:53 | Coperto | 20 | 19 | 93 | 1007 | 10 | N 5.5 | |
| Oggi h: 04:39 | Coperto | 20 | 19 | 93 | 1007 | 14 | SE 7.4 | |
| Oggi h: 04:23 | Coperto | 20 | 19 | 93 | 1007 | 14 | N 5.5 | |
| Oggi h: 03:53 | Coperto | 20 | 19 | 93 | 1007 | 10 | N 0 | |
| Oggi h: 02:53 | Coperto | 20 | 19 | 93 | 1007 | 10 | E 7.4 | |
| Oggi h: 01:53 | Coperto | 19 | 19 | 100 | 1007 | 10 | SE 11.1 | |
| Oggi h: 00:53 | Coperto | 19 | 19 | 100 | 1007 | 10 | SE 11.1 | |
| Oggi h: 00:00 | Coperto | 20 | 19 | 93 | 1007 | 10 | E/SE 14.8 | |
| Ieri h: 23:53 | Coperto | 20 | 19 | 93 | 1007 | 10 | E 18.5 | |
| Ieri h: 23:35 | Temporale nelle vicinanze | 20 | 19 | 93 | 1008 | 10 | E 20.3 | |
| Ieri h: 23:26 | Pioggia | 20 | 19 | 93 | 1008 | 14 | E 13 | |
| Ieri h: 23:11 | Temporale Foschia | 20 | 19 | 93 | 1008 | 8 | E/SE 14.8 | |
| Ieri h: 22:53 | Temporale nelle vicinanze | 21 | 19 | 88 | 1008 | 10 | E/SE 22.2 | |
| Ieri h: 21:53 | Coperto | 21 | 19 | 88 | 1009 | 10 | E/SE 13 | |
| Ieri h: 20:53 | Coperto | 22 | 19 | 83 | 1008 | 10 | E/SE 16.7 | |
| Ieri h: 20:30 | Coperto | 22 | 19 | 83 | 1008 | 10 | E/SE 14.8 | |
| Ieri h: 19:53 | Coperto | 22 | 19 | 83 | 1008 | 10 | E/SE 16.7 | |
| Ieri h: 18:53 | Coperto | 23 | 19 | 78 | 1008 | 10 | E/SE 16.7 | |
| Ieri h: 17:53 | Coperto | 23 | 19 | 78 | 1008 | 10 | E/SE 24 | |
| Ieri h: 16:53 | Coperto | 23 | 18 | 73 | 1009 | 10 | E 20.3 | |



